StationID,Date,MaxTemp,MinTemp,Precipitation,Snowfall,SnowDepth
"CA0011257FN","1978-06-01",83.30,46.40,0.00,0.00,
"CA0011257FN","1978-06-02",87.80,50.00,0.00,0.00,
"CA0011257FN","1978-06-03",,,0.00,0.00,
"CA0011257FN","1978-06-04",93.20,,0.00,0.00,
"CA0011257FN","1978-06-05",,53.60,0.00,0.00,
"CA0011257FN","1978-06-06",91.40,,0.00,0.00,
"CA0011257FN","1978-06-07",87.80,70.70,0.00,0.00,
"CA0011257FN","1978-06-08",82.40,59.00,0.00,0.00,
"CA0011257FN","1978-06-09",,63.50,0.00,0.00,
"CA0011257FN","1978-06-10",,,0.00,0.00,
"CA0011257FN","1978-06-11",74.30,,0.00,0.00,
"CA0011257FN","1978-06-12",75.20,44.60,22.00,0.00,
"CA0011257FN","1978-06-13",59.90,44.60,104.00,0.00,
"CA0011257FN","1978-06-14",68.00,45.50,0.00,0.00,
"CA0011257FN","1978-06-15",62.60,42.80,0.00,0.00,
"CA0011257FN","1978-06-16",70.70,44.60,0.00,0.00,
"CA0011257FN","1978-06-17",79.70,49.10,0.00,0.00,
"CA0011257FN","1978-06-18",72.50,52.70,0.00,0.00,
"CA0011257FN","1978-06-19",77.00,44.60,0.00,0.00,
"CA0011257FN","1978-06-20",74.30,51.80,0.00,0.00,
"CA0011257FN","1978-06-21",85.10,57.20,0.00,0.00,
"CA0011257FN","1978-06-22",79.70,62.60,2.00,0.00,
"CA0011257FN","1978-06-23",74.30,58.10,0.00,0.00,
"CA0011257FN","1978-06-24",77.90,52.70,0.00,0.00,
"CA0011257FN","1978-06-25",74.30,54.50,0.00,0.00,
"CA0011257FN","1978-06-26",83.30,50.90,0.00,0.00,
"CA0011257FN","1978-06-27",92.30,55.40,0.00,0.00,
"CA0011257FN","1978-06-28",95.90,59.00,0.00,0.00,
"CA0011257FN","1978-06-29",86.00,67.10,7.00,0.00,
"CA0011257FN","1978-06-30",,59.00,0.00,0.00,
"CA0011257FN","1978-07-01",84.20,60.80,0.00,0.00,
"CA0011257FN","1978-07-02",77.00,59.90,0.00,0.00,
"CA0011257FN","1978-07-03",86.00,59.00,0.00,0.00,
"CA0011257FN","1978-07-04",78.80,59.90,0.00,0.00,
"CA0011257FN","1978-07-05",79.70,61.70,0.00,0.00,
"CA0011257FN","1978-07-06",85.10,61.70,0.00,0.00,
"CA0011257FN","1978-07-07",89.60,59.90,,0.00,
"CA0011257FN","1978-07-08",89.60,68.00,,0.00,
"CA0011257FN","1978-07-09",77.00,65.30,,0.00,
"CA0011257FN","1978-07-10",66.20,54.50,6.00,0.00,
"CA0011257FN","1978-07-11",68.90,48.20,0.00,0.00,
"CA0011257FN","1978-07-12",77.90,50.00,0.00,0.00,
"CA0011257FN","1978-07-13",87.80,56.30,0.00,0.00,
"CA0011257FN","1978-07-14",87.80,60.80,0.00,0.00,
"CA0011257FN","1978-07-15",87.80,59.00,0.00,0.00,
"CA0011257FN","1978-07-16",76.10,59.90,38.00,0.00,
"CA0011257FN","1978-07-17",82.40,60.80,0.00,0.00,
"CA0011257FN","1978-07-18",80.60,64.40,0.00,0.00,
"CA0011257FN","1978-07-19",86.90,57.20,0.00,0.00,
"CA0011257FN","1978-07-20",89.60,55.40,0.00,0.00,
"CA0011257FN","1978-07-21",90.50,57.20,0.00,0.00,
"CA0011257FN","1978-07-22",93.20,59.90,0.00,0.00,
"CA0011257FN","1978-07-23",95.90,66.20,0.00,0.00,
"CA0011257FN","1978-07-24",95.00,67.10,0.00,0.00,
"CA0011257FN","1978-07-25",93.20,68.00,0.00,0.00,
"CA0011257FN","1978-07-26",83.30,66.20,68.00,0.00,
"CA0011257FN","1978-07-27",84.20,59.90,0.00,0.00,
"CA0011257FN","1978-07-28",84.20,63.50,0.00,0.00,
"CA0011257FN","1978-07-29",90.50,59.90,0.00,0.00,
"CA0011257FN","1978-07-30",95.00,63.50,0.00,0.00,
"CA0011257FN","1978-07-31",93.20,73.40,0.00,0.00,
"CA0011257FN","1978-08-01",94.10,62.60,0.00,0.00,
"CA0011257FN","1978-08-02",95.90,64.40,0.00,0.00,
"CA0011257FN","1978-08-03",94.10,64.40,0.00,0.00,
"CA0011257FN","1978-08-04",93.20,64.40,0.00,0.00,
"CA0011257FN","1978-08-05",91.40,70.70,0.00,0.00,
"CA0011257FN","1978-08-06",95.90,67.10,0.00,0.00,
"CA0011257FN","1978-08-07",95.00,67.10,0.00,0.00,
"CA0011257FN","1978-08-08",96.80,67.10,0.00,0.00,
"CA0011257FN","1978-08-09",96.80,67.10,0.00,0.00,
"CA0011257FN","1978-08-10",88.70,68.00,0.00,0.00,
"CA0011257FN","1978-08-11",77.00,60.80,0.00,0.00,
"CA0011257FN","1978-08-12",68.90,59.00,0.00,0.00,
"CA0011257FN","1978-08-13",73.40,52.70,0.00,0.00,
"CA0011257FN","1978-08-14",62.60,51.80,0.00,0.00,
"CA0011257FN","1978-08-15",66.20,51.80,78.00,0.00,
"CA0011257FN","1978-08-16",66.20,50.00,22.00,0.00,
"CA0011257FN","1978-08-17",72.50,50.00,36.00,0.00,
"CA0011257FN","1978-08-18",71.60,50.00,,0.00,
"CA0011257FN","1978-08-19",68.90,48.20,,0.00,
"CA0011257FN","1978-08-20",69.80,52.70,,0.00,
"CA0011257FN","1978-08-21",72.50,54.50,18.00,0.00,
"CA0011257FN","1978-08-22",73.40,57.20,56.00,0.00,
"CA0011257FN","1978-08-23",70.70,54.50,0.00,0.00,
"CA0011257FN","1978-08-24",65.30,57.20,26.00,0.00,
"CA0011257FN","1978-08-25",68.00,54.50,0.00,0.00,
"CA0011257FN","1978-08-26",73.40,45.50,0.00,0.00,
"CA0011257FN","1978-08-27",75.20,46.40,0.00,0.00,
"CA0011257FN","1978-08-28",75.20,48.20,0.00,0.00,
"CA0011257FN","1978-08-29",78.80,55.40,0.00,0.00,
"CA0011257FN","1978-08-30",76.10,57.20,8.00,0.00,
"CA0011257FN","1978-08-31",68.00,57.20,0.00,0.00,
"CA0011257FN","1978-09-01",66.20,53.60,20.00,0.00,
"CA0011257FN","1978-09-02",79.70,53.60,0.00,0.00,
"CA0011257FN","1978-09-03",68.90,54.50,,0.00,
"CA0011257FN","1978-09-04",61.70,54.50,,0.00,
"CA0011257FN","1978-09-05",63.50,53.60,50.00,0.00,
"CA0011257FN","1978-09-06",68.90,53.60,26.00,0.00,
"CA0011257FN","1978-09-07",62.60,53.60,36.00,0.00,
"CA0011257FN","1978-09-08",66.20,51.80,0.00,0.00,
"CA0011257FN","1978-09-09",69.80,51.80,,0.00,
"CA0011257FN","1978-09-10",64.40,53.60,,0.00,
"CA0011257FN","1978-09-11",70.70,43.70,0.00,0.00,
"CA0011257FN","1978-09-12",73.40,50.90,,0.00,
"CA0011257FN","1978-09-13",64.40,54.50,0.00,0.00,
"CA0011257FN","1978-09-14",69.80,50.90,0.00,0.00,
"CA0011257FN","1978-09-15",67.10,51.80,0.00,0.00,
"CA0011257FN","1978-09-16",61.70,41.90,0.00,0.00,
"CA0011257FN","1978-09-17",62.60,45.50,0.00,0.00,
"CA0011257FN","1978-09-18",68.00,48.20,0.00,0.00,
"CA0011257FN","1978-09-19",66.20,40.10,0.00,0.00,
"CA0011257FN","1978-09-20",64.40,45.50,0.00,0.00,
"CA0011257FN","1978-09-21",62.60,51.80,,0.00,
"CA0011257FN","1978-09-22",66.20,51.80,0.00,0.00,
"CA0011257FN","1978-09-23",59.90,46.40,0.00,0.00,
"CA0011257FN","1978-09-24",69.80,50.00,0.00,0.00,
"CA0011257FN","1978-09-25",73.40,47.30,0.00,0.00,
"CA0011257FN","1978-09-26",76.10,48.20,8.00,0.00,
"CA0011257FN","1978-09-27",71.60,53.60,0.00,0.00,
"CA0011257FN","1978-09-28",64.40,49.10,0.00,0.00,
"CA0011257FN","1978-09-29",70.70,41.90,0.00,0.00,
"CA0011257FN","1978-09-30",71.60,46.40,0.00,0.00,
